Weather History for Poplar Bluff, MO

Change the Weather History Date:

Monday, April 28, 2014

  Actual Average Record
Temperature  
Mean Temperature 68 °F -  
Max Temperature 77 °F 74 °F 88 °F (1952)
Min Temperature 60 °F 49 °F 32 °F (1928)
Cooling Degree Days 4    
Growing Degree Days 18 (Base 50)    
Moisture  
Dew Point 55 °F    
Average Humidity 74    
Maximum Humidity 87    
Minimum Humidity 25    
Precipitation  
Precipitation 0.87 in - - ()
Sea Level Pressure  
Sea Level Pressure 29.55 in    
Wind  
Wind Speed 11 mph (SE)    
Max Wind Speed 18 mph    
Max Gust Speed 30 mph    
Visibility 8 miles    
Events Rain , Thunderstorm    
Averages and records for this station are not official NWS values.
T = Trace of Precipitation, MM = Missing Value Source: NWS Daily Summary

Daily Weather History Graph

Daily Weather History Graph

Search for Another Location

Airport:

Trip Planner

Search our weather history database for the weather conditions in past years. The results will help you decide how hot, cold, wet, or windy it might be!

Date:

Astronomy

Apr. 28, 2014 Rise Set
Actual Time 6:10 AM CDT 7:47 PM CDT
Civil Twilight 5:43 AM CDT 8:14 PM CDT
Nautical Twilight 5:10 AM CDT 8:48 PM CDT
Astronomical Twilight 4:35 AM CDT 9:23 PM CDT
Moon 5:47 AM CDT (4/28) 7:26 PM CDT (4/28)
Length of Visible Light 14h 31m
Length of Day
13h 36m
Waning Crescent, 0% of the Moon is Illuminated
Apr 28
Waning Crescent
Apr 29
New
May 6
First Quarter
May 14
Full
May 21
Last Quarter

Hourly Weather History & Observations

Time (CDT) Temp. Dew Point Humidity Pressure Visibility Wind Dir Wind Speed Gust Speed Precip Events Conditions
12:21 AM 64.0 °F 59.0 °F 84% 29.57 in 2.0 mi ESE 11.5 mph - 0.19 in Rain , Thunderstorm Heavy Thunderstorms and Rain
12:29 AM 64.0 °F 59.0 °F 84% 29.59 in 3.0 mi SE 11.5 mph - 0.29 in Rain , Thunderstorm Heavy Rain
12:41 AM 64.0 °F 59.0 °F 84% 29.57 in 10.0 mi ESE 11.5 mph - 0.30 in Rain , Thunderstorm Light Rain
1:12 AM 64.0 °F 59.0 °F 84% 29.57 in 4.0 mi East 9.2 mph 19.6 mph 0.08 in Rain , Thunderstorm Heavy Thunderstorms and Rain
1:18 AM 64.0 °F 59.0 °F 84% 29.58 in 2.5 mi East 10.4 mph 18.4 mph 0.13 in Rain , Thunderstorm Heavy Thunderstorms and Rain
1:21 AM 63.0 °F 59.0 °F 87% 29.60 in 1.8 mi ENE 6.9 mph 18.4 mph 0.20 in Rain , Thunderstorm Heavy Thunderstorms and Rain
1:41 AM 63.0 °F 57.9 °F 84% 29.57 in 1.8 mi East 16.1 mph 21.9 mph 0.73 in Rain , Thunderstorm Heavy Rain
1:46 AM 63.0 °F 57.9 °F 84% 29.55 in 3.0 mi East 13.8 mph - 0.75 in Rain , Thunderstorm Rain
1:53 AM 63.0 °F 57.9 °F 84% 29.56 in 6.0 mi NE 11.5 mph 21.9 mph 0.77 in Rain , Thunderstorm Light Rain
1:56 AM 63.0 °F 57.9 °F 84% 29.57 in 7.0 mi Variable 3.5 mph - 0.00 in Rain , Thunderstorm Thunderstorms and Rain
2:03 AM 63.0 °F 57.9 °F 84% 29.56 in 2.5 mi East 8.1 mph - 0.03 in Rain , Thunderstorm Thunderstorms and Rain
2:11 AM 62.1 °F 57.9 °F 86% 29.58 in 1.0 mi East 9.2 mph - 0.38 in Rain , Thunderstorm Heavy Thunderstorms and Rain
2:15 AM 62.1 °F 57.9 °F 86% 29.59 in 0.8 mi NNE 9.2 mph - 0.61 in Rain , Thunderstorm Heavy Thunderstorms and Rain
2:22 AM 62.1 °F 57.9 °F 86% 29.58 in 1.5 mi East 10.4 mph - 0.72 in Rain , Thunderstorm Heavy Thunderstorms and Rain
2:45 AM 61.0 °F 55.0 °F 81% 29.61 in 3.0 mi West 11.5 mph - 1.20 in Rain , Thunderstorm Light Thunderstorms and Rain
3:01 AM 61.0 °F 55.0 °F 81% 29.61 in 8.0 mi South 3.5 mph - 0.01 in Rain , Thunderstorm Light Rain
3:21 AM 60.1 °F 55.0 °F 83% 29.61 in 5.0 mi ESE 8.1 mph - 0.03 in Rain , Thunderstorm Thunderstorms and Rain
3:36 AM 60.1 °F 55.0 °F 83% 29.63 in 9.0 mi SE 11.5 mph - 0.06 in Rain , Thunderstorm Light Rain
3:46 AM 60.1 °F 55.0 °F 83% 29.61 in 7.0 mi SE 9.2 mph - 0.07 in Rain Rain
3:53 AM 60.1 °F 55.0 °F 83% 29.61 in 7.0 mi SE 11.5 mph - 0.07 in Rain Light Rain
3:59 AM 60.1 °F 55.0 °F 83% 29.62 in 9.0 mi SE 9.2 mph - 0.01 in Rain , Thunderstorm Light Thunderstorms and Rain
4:20 AM 60.1 °F 55.0 °F 83% 29.58 in 10.0 mi ESE 15.0 mph - 0.02 in Rain Light Rain
4:32 AM 60.1 °F 55.0 °F 83% 29.57 in 10.0 mi ESE 17.3 mph 23.0 mph 0.03 in Rain , Thunderstorm Light Rain
4:53 AM 61.0 °F 55.0 °F 81% 29.56 in 10.0 mi ESE 8.1 mph 18.4 mph 0.03 in Rain Light Rain
5:53 AM 60.1 °F 55.0 °F 83% 29.55 in 10.0 mi ESE 8.1 mph - 0.00 in   Mostly Cloudy
6:17 AM 61.0 °F 54.0 °F 78% 29.56 in 10.0 mi ESE 10.4 mph - N/A Thunderstorm Mostly Cloudy
6:34 AM 61.0 °F 54.0 °F 78% 29.54 in 10.0 mi ESE 11.5 mph - N/A Thunderstorm Thunderstorm
6:53 AM 61.0 °F 55.0 °F 81% 29.55 in 10.0 mi ESE 8.1 mph - 0.00 in Rain , Thunderstorm Light Thunderstorms and Rain
7:05 AM 61.0 °F 55.0 °F 81% 29.57 in 10.0 mi Calm Calm - 0.00 in Thunderstorm Mostly Cloudy
7:12 AM 61.0 °F 55.0 °F 81% 29.57 in 10.0 mi NNE 4.6 mph - 0.00 in   Overcast
7:53 AM 62.1 °F 55.9 °F 80% 29.56 in 10.0 mi ESE 13.8 mph 20.7 mph 0.00 in   Overcast
8:34 AM 62.1 °F 55.9 °F 80% 29.53 in 10.0 mi East 10.4 mph 17.3 mph N/A   Overcast
9:03 AM 64.0 °F 57.0 °F 78% 29.54 in 10.0 mi SE 15.0 mph 23.0 mph N/A   Overcast
9:18 AM 64.0 °F 57.0 °F 78% 29.53 in 10.0 mi SE 15.0 mph - N/A   Overcast
9:37 AM 64.9 °F 57.9 °F 78% 29.53 in 10.0 mi SSE 17.3 mph 21.9 mph N/A   Scattered Clouds
9:53 AM 66.0 °F 57.9 °F 75% 29.54 in 10.0 mi SSE 15.0 mph - N/A   Partly Cloudy
10:53 AM 69.1 °F 60.1 °F 73% 29.52 in 10.0 mi South 12.7 mph 23.0 mph N/A   Mostly Cloudy
11:03 AM 69.1 °F 60.1 °F 73% 29.53 in 10.0 mi South 11.5 mph - N/A   Scattered Clouds
11:10 AM 69.1 °F 60.1 °F 73% 29.52 in 10.0 mi South 10.4 mph - N/A   Mostly Cloudy
11:53 AM 70.0 °F 61.0 °F 73% 29.51 in 10.0 mi South 10.4 mph - N/A   Overcast
12:53 PM 72.0 °F 62.1 °F 71% 29.49 in 10.0 mi South 15.0 mph - N/A   Overcast
1:42 PM 75.0 °F 64.0 °F 69% 29.48 in 10.0 mi South 16.1 mph - N/A   Mostly Cloudy
1:53 PM 75.0 °F 64.0 °F 69% 29.47 in 10.0 mi SSW 18.4 mph 26.5 mph N/A   Mostly Cloudy
2:53 PM 77.0 °F 62.1 °F 60% 29.43 in 10.0 mi SSW 17.3 mph 23.0 mph N/A   Clear
4:53 PM 75.9 °F 57.0 °F 52% 29.44 in 10.0 mi SSW 16.1 mph 29.9 mph N/A   Clear
5:53 PM 77.0 °F 44.1 °F 31% 29.44 in 10.0 mi WSW 12.7 mph 19.6 mph N/A   Clear
6:53 PM 75.9 °F 37.9 °F 25% 29.45 in 10.0 mi WSW 10.4 mph - N/A   Partly Cloudy
7:53 PM 72.0 °F 48.9 °F 44% 29.49 in 10.0 mi SSW 9.2 mph - N/A   Mostly Cloudy
8:53 PM 71.1 °F 43.0 °F 36% 29.52 in 10.0 mi WSW 5.8 mph - N/A   Mostly Cloudy
9:53 PM 70.0 °F 37.9 °F 31% 29.55 in 10.0 mi WSW 5.8 mph - N/A   Overcast
10:53 PM 66.9 °F 37.9 °F 34% 29.56 in 10.0 mi WNW 9.2 mph - N/A   Clear
11:53 PM 61.0 °F 43.0 °F 52% 29.57 in 10.0 mi SSW 5.8 mph - N/A   Clear